FW0288 Weather Reports


time (UTC)temp
C
wind
direction
speed
KPH
gust
KPH
rain 1hr
cm
rain 24hr
cm
rain mn
cm
humidity
%
barometer
mb
20260508194556 16 103 0.0 8.0 0.00 0.03 0.03 44 1007.9
20260508193107 16 89 0.0 4.8 0.00 0.03 0.03 47 1008.0
20260508191600 16 360 0.0 9.7 0.00 0.03 0.03 50 1008.2
20260508190054 17 360 3.2 14.5 0.00 0.03 0.03 50 1008.3
20260508184554 15 360 0.0 9.7 0.00 0.03 0.03 52 1008.4
20260508183051 16 360 1.6 8.0 0.00 0.03 0.03 51 1008.6
20260508181548 16 360 1.6 9.7 0.00 0.03 0.03 53 1008.8
20260508180046 15 59 1.6 12.9 0.00 0.03 0.03 54 1009.0
20260508174543 15 360 3.2 12.9 0.00 0.03 0.03 52 1009.1
20260508173041 15 40 1.6 8.0 0.00 0.03 0.03 54 1009.2
20260508171539 15 38 0.0 4.8 0.00 0.03 0.03 51 1009.2
20260508170037 15 57 1.6 9.7 0.00 0.03 0.03 53 1009.2
20260508164537 14 360 0.0 6.4 0.00 0.03 0.03 55 1009.3
20260508163032 13 86 0.0 6.4 0.00 0.03 0.03 56 1009.3
20260508161528 13 360 1.6 6.4 0.00 0.03 0.03 58 1009.4
20260508160031 13 360 0.0 6.4 0.00 0.03 0.03 62 1009.4
20260508154527 12 360 1.6 9.7 0.00 0.03 0.03 62 1009.3
20260508153024 13 360 1.6 12.9 0.00 0.03 0.03 65 1009.3
20260508151524 13 360 1.6 6.4 0.00 0.03 0.03 62 1009.2
20260508150018 12 360 1.6 9.7 0.00 0.03 0.03 66 1009.1
20260508144518 12 147 0.0 6.4 0.00 0.03 0.03 64 1009.4
20260508143015 12 182 0.0 1.6 0.00 0.03 0.03 66 1009.3
20260508141510 11 162 0.0 4.8 0.00 0.03 0.03 72 1009.6
20260508140005 10 205 0.0 6.4 0.00 0.03 0.03 77 1009.6
20260508134505 10 261 0.0 0.0 0.00 0.03 0.03 85 1010.0
20260508133112 7 261 0.0 0.0 0.00 0.03 0.03 85 1010.1
20260508131602 7 261 0.0 0.0 0.00 0.03 0.03 84 1010.1
20260508130111 7 261 0.0 0.0 0.00 0.03 0.03 84 1010.1
20260508124558 7 261 0.0 0.0 0.00 0.03 0.03 86 1010.3
20260508123105 6 360 0.0 3.2 0.00 0.03 0.03 86 1010.1
20260508121602 6 285 0.0 4.8 0.00 0.03 0.03 88 1010.4
20260508120049 5 254 0.0 0.0 0.00 0.03 0.03 88 1009.7
20260508114546 5 233 0.0 1.6 0.00 0.03 0.03 88 1008.9
20260508113046 5 360 0.0 1.6 0.00 0.03 0.03 88 1008.9
20260508111544 5 15 0.0 0.0 0.03 0.03 0.03 87 1009.0
20260508110042 5 15 0.0 0.0 0.03 0.03 0.03 87 1008.8
20260508104611 5 15 0.0 0.0 0.03 0.03 0.03 87 1008.6
20260508103044 5 15 0.0 0.0 0.03 0.03 0.03 86 1008.4
20260508101541 5 15 0.0 1.6 0.00 0.00 0.00 86 1008.1
20260508100036 6 161 0.0 0.0 0.00 0.00 0.00 86 1007.4
20260508094543 6 160 0.0 0.0 0.00 0.00 0.00 86 1007.5
20260508093034 6 149 0.0 0.0 0.00 0.00 0.00 86 1007.4
20260508091532 6 149 0.0 0.0 0.00 0.00 0.00 86 1007.4
20260508084527 6 360 0.0 1.6 0.00 0.00 0.00 87 1007.9
20260508083024 7 143 0.0 0.0 0.00 0.00 0.00 87 1008.0
20260508081523 7 109 0.0 0.0 0.00 0.00 0.00 87 1008.1
20260508080026 7 360 0.0 0.0 0.00 0.00 0.00 86 1008.4
20260508074520 7 360 0.0 0.0 0.00 0.00 0.00 85 1008.7
20260508073018 7 108 0.0 0.0 0.00 0.00 0.00 84 1008.8
20260508071517 8 108 0.0 0.0 0.00 0.00 0.00 83 1008.7
20260508070020 8 107 0.0 0.0 0.00 0.00 0.00 82 1008.7
20260508064509 8 360 0.0 0.0 0.00 0.00 0.00 80 1008.4
20260508063006 9 360 0.0 0.0 0.00 0.00 0.00 79 1008.4
20260508061507 10 108 0.0 0.0 0.00 0.00 0.00 77 1008.3
20260508060001 10 107 0.0 1.6 0.00 0.00 0.00 73 1008.1
20260508054557 11 74 0.0 3.2 0.00 0.00 0.00 69 1008.5
20260508053105 11 360 0.0 6.4 0.00 0.00 0.00 64 1009.5
20260508051555 11 273 0.0 3.2 0.00 0.00 0.00 66 1008.7
20260508050059 11 23 0.0 0.0 0.00 0.00 0.00 65 1008.4
20260508044551 12 360 0.0 0.0 0.00 0.00 0.00 63 1008.1
20260508043100 12 360 0.0 1.6 0.00 0.00 0.00 63 1008.3
20260508041547 12 37 0.0 8.0 0.00 0.00 0.00 61 1008.5
20260508040044 13 360 0.0 14.5 0.00 0.00 0.00 56 1009.2
20260508034540 13 360 1.6 8.0 0.00 0.00 0.00 50 1008.7
20260508033037 14 124 0.0 0.0 0.00 0.00 0.00 44 1008.2
20260508031535 15 162 0.0 4.8 0.00 0.00 0.00 43 1008.3
20260508030048 15 259 0.0 6.4 0.00 0.00 0.00 43 1008.0
20260508024536 15 253 0.0 6.4 0.00 0.00 0.00 43 1008.0
20260508023037 15 160 0.0 6.4 0.00 0.00 0.00 43 1008.1
20260508021537 15 360 0.0 4.8 0.00 0.00 0.00 47 1008.0
20260508020032 15 360 0.0 3.2 0.00 0.00 0.00 47 1008.0
20260508014531 15 90 0.0 4.8 0.00 0.00 0.00 47 1007.6
20260508013030 16 94 0.0 4.8 0.00 0.00 0.00 43 1007.7
20260508011529 17 347 0.0 6.4 0.00 0.00 0.00 37 1007.9
20260508010028 17 351 0.0 1.6 0.00 0.00 0.00 31 1007.4
20260508004528 18 172 0.0 0.0 0.00 0.00 0.00 29 1007.0
20260508003027 18 360 0.0 3.2 0.00 0.00 0.00 28 1007.0
20260508001525 19 360 0.0 4.8 0.00 0.00 0.00 27 1007.0
20260508000024 19 187 0.0 0.0 0.00 0.00 0.00 27 1007.3
20260507234529 20 219 0.0 3.2 0.00 0.00 0.00 26 1007.3
20260507233025 21 246 0.0 4.8 0.00 0.00 0.00 23 1007.3
20260507231524 20 197 0.0 3.2 0.00 0.00 0.00 26 1007.6
20260507230022 21 215 0.0 4.8 0.00 0.00 0.00 24 1007.8
20260507224518 21 232 0.0 6.4 0.00 0.00 0.00 24 1007.9
20260507223016 21 237 0.0 4.8 0.00 0.00 0.00 24 1008.1
20260507221513 21 296 0.0 6.4 0.00 0.00 0.00 26 1008.3
20260507220010 21 187 0.0 0.0 0.00 0.00 0.00 23 1008.7
20260507214507 20 360 0.0 6.4 0.00 0.00 0.00 27 1009.3
20260507213004 21 265 0.0 4.8 0.00 0.00 0.00 26 1009.7
20260507211502 20 279 0.0 12.9 0.00 0.00 0.00 26 1010.2
20260507210059 20 360 0.0 9.7 0.00 0.00 0.00 27 1010.6
20260507204601 20 360 0.0 14.5 0.00 0.23 0.00 26 1010.9
20260507203055 20 360 3.2 16.1 0.00 0.23 0.00 26 1011.2
20260507201600 18 218 0.0 1.6 0.00 0.23 0.00 29 1011.4